TimeEST,TemperatureF,Dew PointF,Humidity,Sea Level PressureIn,VisibilityMPH,Wind Direction,Wind SpeedMPH,Gust SpeedMPH,PrecipitationIn,Events,Conditions,WindDirDegrees,DateUTC
12:55 AM,56.8,50.9,80,30.22,10.0,Variable,3.5,-,N/A,,Overcast,0,2012-12-03 05:55:00
1:55 AM,56.3,50.7,82,30.22,10.0,Calm,Calm,-,N/A,,Overcast,0,2012-12-03 06:55:00
2:55 AM,55.8,51.1,84,30.22,10.0,SSW,4.6,-,N/A,,Overcast,200,2012-12-03 07:55:00
3:55 AM,54.9,50.9,86,30.21,10.0,SSW,3.5,-,N/A,,Mostly Cloudy,210,2012-12-03 08:55:00
4:55 AM,53.8,50.9,90,30.20,10.0,Calm,Calm,-,N/A,,Scattered Clouds,0,2012-12-03 09:55:00
5:55 AM,51.1,49.1,93,30.22,10.0,Calm,Calm,-,N/A,,Clear,0,2012-12-03 10:55:00
6:55 AM,49.3,48.2,96,30.23,6.0,Calm,Calm,-,N/A,,Partly Cloudy,0,2012-12-03 11:55:00
7:02 AM,50.0,48.2,94,30.23,2.5,Calm,Calm,-,N/A,,Partly Cloudy,0,2012-12-03 12:02:00
7:03 AM,50.0,48.2,94,30.23,1.2,Calm,Calm,-,N/A,,Partly Cloudy,0,2012-12-03 12:03:00
7:05 AM,50.0,48.2,94,30.23,0.8,Calm,Calm,-,N/A,,Partly Cloudy,0,2012-12-03 12:05:00
7:06 AM,50.0,48.2,94,30.23,0.5,Calm,Calm,-,N/A,Fog,Fog,0,2012-12-03 12:06:00
7:08 AM,50.0,48.2,94,30.23,0.2,Calm,Calm,-,N/A,Fog,Fog,0,2012-12-03 12:08:00
7:15 AM,48.2,48.2,100,30.24,0.5,Calm,Calm,-,N/A,Fog,Fog,0,2012-12-03 12:15:00
7:16 AM,48.2,48.2,100,30.22,6.0,Calm,Calm,-,N/A,,Clear,0,2012-12-03 12:16:00
7:55 AM,50.5,49.8,97,30.25,10.0,Calm,Calm,-,N/A,,Clear,0,2012-12-03 12:55:00
8:55 AM,59.0,54.7,86,30.26,10.0,WNW,5.8,-,N/A,,Scattered Clouds,290,2012-12-03 13:55:00
9:55 AM,59.9,54.5,82,30.27,10.0,WNW,3.5,-,N/A,,Mostly Cloudy,290,2012-12-03 14:55:00
10:55 AM,62.2,54.1,75,30.27,10.0,WNW,4.6,-,N/A,,Mostly Cloudy,300,2012-12-03 15:55:00
11:55 AM,65.5,54.3,67,30.25,10.0,Calm,Calm,-,N/A,,Partly Cloudy,0,2012-12-03 16:55:00
12:55 PM,66.0,54.3,66,30.23,10.0,South,4.6,-,N/A,,Scattered Clouds,190,2012-12-03 17:55:00
1:55 PM,66.6,53.8,63,30.21,10.0,South,3.5,-,N/A,,Scattered Clouds,170,2012-12-03 18:55:00
2:55 PM,68.5,53.1,58,30.21,10.0,Variable,4.6,-,N/A,,Clear,0,2012-12-03 19:55:00
3:55 PM,67.5,53.2,60,30.22,10.0,SSE,4.6,-,N/A,,Clear,150,2012-12-03 20:55:00
4:55 PM,64.0,53.1,67,30.23,10.0,Calm,Calm,-,N/A,,Clear,0,2012-12-03 21:55:00
5:55 PM,55.9,50.5,82,30.25,10.0,Calm,Calm,-,N/A,,Clear,0,2012-12-03 22:55:00
6:27 PM,55.4,50.0,82,30.25,10.0,Calm,Calm,-,N/A,,Light Drizzle,0,2012-12-03 23:27:00
6:37 PM,57.2,51.8,82,30.25,10.0,Calm,Calm,-,N/A,,Clear,0,2012-12-03 23:37:00
6:55 PM,55.2,50.9,85,30.26,10.0,Calm,Calm,-,0.00,,Clear,0,2012-12-03 23:55:00
7:55 PM,53.6,50.4,89,30.26,10.0,Calm,Calm,-,N/A,,Clear,0,2012-12-04 00:55:00
8:55 PM,51.1,48.6,91,30.26,10.0,Calm,Calm,-,N/A,,Clear,0,2012-12-04 01:55:00
9:55 PM,50.4,48.9,95,30.27,10.0,Calm,Calm,-,N/A,,Scattered Clouds,0,2012-12-04 02:55:00
10:55 PM,52.7,49.5,89,30.27,10.0,Calm,Calm,-,N/A,,Overcast,0,2012-12-04 03:55:00
11:55 PM,53.8,50.7,89,30.27,10.0,South,4.6,-,N/A,,Clear,170,2012-12-04 04:55:00